KAZMOHAV2 Weather Reports


Display with metric or nautical units.
time (UTC)temp
F
wind
direction
speed
MPH
gust
MPH
rain 1hr
in
rain 24hr
in
rain mn
in
humidity
%
barometer
mb
20260507003055 90 0 0.0 0.0 0.00 0.00 0.00 16 1010.0
20260507001601 90 0 0.0 0.0 0.00 0.00 0.00 15 1010.0
20260507000123 90 0 0.0 0.0 0.00 0.00 0.00 15 1010.1
20260506234610 89 0 0.0 0.0 0.00 0.00 0.00 16 1010.2
20260506233052 88 0 0.0 0.0 0.00 0.00 0.00 16 1010.3
20260506231555 88 0 0.0 0.0 0.00 0.00 0.00 17 1010.7
20260506224551 87 0 0.0 0.0 0.00 0.00 0.00 17 1010.8
20260506223050 87 0 0.0 0.0 0.00 0.00 0.00 18 1011.1
20260506221602 86 0 0.0 0.0 0.00 0.00 0.00 18 1011.2
20260506220052 86 0 0.0 0.0 0.00 0.00 0.00 18 1011.5
20260506214559 86 0 0.0 0.0 0.00 0.00 0.00 17 1011.9
20260506213055 87 0 0.0 0.0 0.00 0.00 0.00 17 1012.2
20260506211554 87 0 0.0 0.0 0.00 0.00 0.00 17 1012.4
20260506210050 86 0 0.0 0.0 0.00 0.00 0.00 18 1012.4
20260506204550 86 0 0.0 0.0 0.00 0.00 0.00 17 1012.7
20260506203048 87 0 0.0 0.0 0.00 0.00 0.00 16 1012.9
20260506201553 85 0 0.0 0.0 0.00 0.00 0.00 18 1013.1
20260506200051 84 0 0.0 0.0 0.00 0.00 0.00 19 1013.3
20260506194554 84 0 0.0 0.0 0.00 0.00 0.00 19 1013.5
20260506193055 83 0 0.0 0.0 0.00 0.00 0.00 19 1013.7
20260506191600 82 0 0.0 0.0 0.00 0.00 0.00 20 1013.8
20260506190053 81 0 0.0 0.0 0.00 0.00 0.00 21 1014.0
20260506184556 82 0 0.0 0.0 0.00 0.00 0.00 21 1014.3
20260506183101 81 0 0.0 0.0 0.00 0.00 0.00 22 1014.4
20260506181605 81 0 0.0 0.0 0.00 0.00 0.00 23 1014.7
20260506180055 80 0 0.0 0.0 0.00 0.00 0.00 24 1014.7
20260506174553 77 0 0.0 0.0 0.00 0.00 0.00 25 1014.8
20260506173119 77 0 0.0 0.0 0.00 0.00 0.00 25 1014.9
20260506171552 76 0 0.0 0.0 0.00 0.00 0.00 26 1014.9
20260506170104 76 0 0.0 0.0 0.00 0.00 0.00 26 1014.9
20260506164548 75 0 0.0 0.0 0.00 0.00 0.00 27 1015.0
20260506163056 74 0 0.0 0.0 0.00 0.00 0.00 29 1015.0
20260506161548 73 0 0.0 0.0 0.00 0.00 0.00 29 1015.0
20260506160053 72 0 0.0 0.0 0.00 0.00 0.00 31 1015.0
20260506154609 71 0 0.0 0.0 0.00 0.00 0.00 33 1015.0
20260506153047 70 0 0.0 0.0 0.00 0.00 0.00 32 1014.9
20260506151554 69 0 0.0 0.0 0.00 0.00 0.00 33 1014.7
20260506150054 68 0 0.0 0.0 0.00 0.00 0.00 36 1014.7
20260506144553 66 0 0.0 0.0 0.00 0.00 0.00 38 1014.6
20260506143053 65 0 0.0 0.0 0.00 0.00 0.00 38 1014.6
20260506141551 65 0 0.0 0.0 0.00 0.00 0.00 37 1014.6
20260506140053 64 0 0.0 0.0 0.00 0.00 0.00 38 1014.4
20260506134550 63 0 0.0 0.0 0.00 0.00 0.00 40 1014.2
20260506133105 62 0 0.0 0.0 0.00 0.00 0.00 41 1013.9
20260506131547 61 0 0.0 0.0 0.00 0.00 0.00 42 1013.8
20260506130052 61 0 0.0 0.0 0.00 0.00 0.00 42 1013.6
20260506124548 61 0 0.0 0.0 0.00 0.00 0.00 42 1013.4
20260506123049 62 0 0.0 0.0 0.00 0.00 0.00 41 1013.4
20260506121550 62 0 0.0 0.0 0.00 0.00 0.00 40 1013.3
20260506120052 62 0 0.0 0.0 0.00 0.00 0.00 40 1013.3
20260506114551 62 0 0.0 0.0 0.00 0.00 0.00 41 1013.0
20260506113048 62 0 0.0 0.0 0.00 0.00 0.00 42 1012.9
20260506111551 62 0 0.0 0.0 0.00 0.00 0.00 41 1012.8
20260506110052 62 0 0.0 0.0 0.00 0.00 0.00 40 1012.6
20260506104609 63 0 0.0 0.0 0.00 0.00 0.00 41 1012.7
20260506103050 63 0 0.0 0.0 0.00 0.00 0.00 40 1012.4
20260506101552 64 0 0.0 0.0 0.00 0.00 0.00 37 1012.3
20260506100050 64 0 0.0 0.0 0.00 0.00 0.00 38 1012.2
20260506094547 65 0 0.0 0.0 0.00 0.00 0.00 38 1012.2
20260506093049 65 0 0.0 0.0 0.00 0.00 0.00 36 1011.9
20260506091548 66 0 0.0 0.0 0.00 0.00 0.00 35 1011.9
20260506090052 67 0 0.0 0.0 0.00 0.00 0.00 34 1011.8
20260506084550 65 0 0.0 0.0 0.00 0.00 0.00 37 1011.8
20260506083049 65 0 0.0 0.0 0.00 0.00 0.00 38 1011.9
20260506081557 65 0 0.0 0.0 0.00 0.00 0.00 41 1011.8
20260506073051 67 0 0.0 0.0 0.00 0.00 0.00 33 1011.7
20260506071554 68 0 0.0 0.0 0.00 0.00 0.00 31 1011.5
20260506061548 71 0 0.0 0.0 0.00 0.00 0.00 30 1010.8
20260506044608 73 0 0.0 0.0 0.00 0.00 0.00 25 1010.0
20260506043057 74 0 0.0 0.0 0.00 0.00 0.00 23 1009.7
20260506041555 74 0 0.0 0.0 0.00 0.00 0.00 23 1009.4
20260506040059 74 0 0.0 0.0 0.00 0.00 0.00 23 1009.3
20260506034554 75 0 0.0 0.0 0.00 0.00 0.00 23 1009.2
20260506033056 75 0 0.0 0.0 0.00 0.00 0.00 22 1009.0
20260506031555 75 0 0.0 0.0 0.00 0.00 0.00 22 1008.7
20260506030053 76 0 0.0 0.0 0.00 0.00 0.00 22 1008.6
20260506024554 76 0 0.0 0.0 0.00 0.00 0.00 21 1008.3
20260506023054 76 0 0.0 0.0 0.00 0.00 0.00 21 1008.1
20260506021557 77 0 0.0 0.0 0.00 0.00 0.00 21 1007.9
20260506020052 77 0 0.0 0.0 0.00 0.00 0.00 20 1007.7
20260506014553 78 0 0.0 0.0 0.00 0.00 0.00 20 1007.6
20260506013055 78 0 0.0 0.0 0.00 0.00 0.00 19 1007.6
20260506011553 79 0 0.0 0.0 0.00 0.00 0.00 19 1007.5
20260506010056 79 0 0.0 0.0 0.00 0.00 0.00 19 1007.4
20260506004552 80 0 0.0 0.0 0.00 0.00 0.00 18 1007.5